Weather History for Wainwright, AK

Change the Weather History Date:

Saturday, September 14, 2013

  Actual Average (PABR) Record (PABR)
Temperature  
Mean Temperature 35 °F 33 °F  
Max Temperature 37 °F 37 °F 53 °F (2006)
Min Temperature 33 °F 30 °F 13 °F (1992)
Degree Days  
Heating Degree Days 30 32  
Month to date heating degree days 421  
Since 1 July heating degree days 1975  
Cooling Degree Days 0    
Month to date cooling degree days  
Year to date cooling degree days  
Moisture  
Dew Point 31 °F    
Average Humidity 86    
Maximum Humidity 93    
Minimum Humidity 78    
Precipitation  
Precipitation 0.00 in 0.03 in 0.22 in (1972)
Month to date precipitation 0.39  
Year to date precipitation 3.44  
Snow  
Snow 0.00 in 0.10 in 2.30 in (1972)
Month to date snowfall 1.4  
Since 1 July snowfall 2.5  
Since 1 September snowfall 1.4  
Snow Depth -    
Sea Level Pressure  
Sea Level Pressure 29.91 in    
Wind  
Wind Speed 17 mph (WNW)    
Max Wind Speed 28 mph    
Max Gust Speed 33 mph    
Visibility 6 miles    
Events Snow    
T = Trace of Precipitation, MM = Missing Value Source: NWS Daily Summary

Daily Weather History Graph

Daily Weather History Graph

Search for Another Location

Airport:

Trip Planner

Search our weather history database for the weather conditions in past years. The results will help you decide how hot, cold, wet, or windy it might be!

Date:

Astronomy

Sep. 14, 2013 Rise Set
Actual Time 7:48 AM AKDT 9:19 PM AKDT
Civil Twilight 6:42 AM AKDT 10:25 PM AKDT
Nautical Twilight 5:07 AM AKDT 11:57 PM AKDT
Astronomical Twilight 3:07 AM AKDT 2:02 AM AKDT
Moon 8:33 PM AKDT (9/14) No Moon Set
Length of Visible Light 15h 43m
Length of Day
13h 30m
Waxing Gibbous, 74% of the Moon is Illuminated
Sep 14
Waxing Gibbous
Sep 19
Full
Sep 26
Last Quarter
Oct 4
New
Oct 11
First Quarter

Hourly Weather History & Observations

Time (AKDT) Temp. Windchill Dew Point Humidity Pressure Visibility Wind Dir Wind Speed Gust Speed Precip Events Conditions
12:22 AM 35.6 °F 26.6 °F 32.0 °F 87% 29.75 in 9.0 mi West 13.8 mph - 0.00 in Snow Light Snow
12:33 AM 35.6 °F 26.2 °F 32.0 °F 87% 29.76 in 9.0 mi West 15.0 mph - 0.00 in Snow Light Snow
12:53 AM 35.1 °F 25.9 °F 32.0 °F 89% 29.76 in 8.0 mi West 13.8 mph - 0.00 in Snow Light Snow
1:08 AM 35.6 °F 25.2 °F 32.0 °F 87% 29.76 in 6.0 mi West 18.4 mph 23.0 mph 0.00 in Snow Light Snow
1:32 AM 33.8 °F 24.3 °F 32.0 °F 93% 29.77 in 2.5 mi West 13.8 mph 23.0 mph 0.00 in Snow Light Snow
1:40 AM 33.8 °F 23.2 °F 32.0 °F 93% 29.77 in 3.0 mi West 17.3 mph 21.9 mph 0.00 in Snow Light Snow
1:51 AM 33.8 °F 23.2 °F 32.0 °F 93% 29.78 in 2.0 mi West 17.3 mph - 0.00 in Snow Light Snow
1:53 AM 34.0 °F 23.8 °F 32.0 °F 92% 29.78 in 1.8 mi West 16.1 mph - 0.00 in Snow Light Snow
2:07 AM 33.8 °F 22.8 °F 30.2 °F 87% 29.78 in 2.5 mi West 18.4 mph 25.3 mph 0.00 in Snow Light Snow
2:14 AM 33.8 °F 22.5 °F 30.2 °F 87% 29.78 in 3.0 mi West 19.6 mph - 0.00 in Snow Light Snow
2:23 AM 33.8 °F 23.9 °F 30.2 °F 87% 29.79 in 6.0 mi West 15.0 mph 23.0 mph 0.00 in Snow Light Snow
2:53 AM 35.1 °F 24.1 °F 30.9 °F 85% 29.79 in 10.0 mi West 19.6 mph 25.3 mph 0.00 in   Overcast
3:00 AM 35.6 °F 24.8 °F 30.2 °F 81% 29.79 in 10.0 mi West 19.6 mph 25.3 mph N/A   Overcast
3:53 AM 34.0 °F 23.4 °F 28.9 °F 82% 29.81 in 10.0 mi West 17.3 mph - N/A   Overcast
4:53 AM 35.1 °F 23.5 °F 28.9 °F 78% 29.81 in 9.0 mi West 21.9 mph 27.6 mph N/A   Overcast
5:53 AM 34.0 °F 22.4 °F 30.0 °F 85% 29.82 in 5.0 mi West 20.7 mph 26.5 mph 0.00 in Snow Light Snow
6:53 AM 34.0 °F 22.7 °F 30.0 °F 85% 29.82 in 10.0 mi West 19.6 mph 29.9 mph 0.00 in   Overcast
7:53 AM 34.0 °F 22.1 °F 28.9 °F 82% 29.83 in 9.0 mi West 21.9 mph 31.1 mph 0.00 in Snow Light Snow
8:08 AM 33.8 °F 21.6 °F 28.4 °F 81% 29.83 in 6.0 mi West 23.0 mph - 0.00 in Snow Light Snow
8:38 AM 33.8 °F 22.5 °F 30.2 °F 87% 29.84 in 3.0 mi West 19.6 mph 29.9 mph 0.00 in Snow Light Snow
8:40 AM 33.8 °F 22.2 °F 30.2 °F 87% 29.83 in 2.5 mi West 20.7 mph 29.9 mph 0.00 in Snow Light Snow
8:49 AM 33.8 °F 21.6 °F 28.4 °F 81% 29.84 in 8.0 mi West 23.0 mph 31.1 mph 0.00 in   Overcast
8:53 AM 34.0 °F 21.8 °F 28.9 °F 82% 29.84 in 8.0 mi West 23.0 mph 28.8 mph 0.00 in   Overcast
9:01 AM 33.8 °F 22.5 °F 28.4 °F 81% 29.84 in 5.0 mi West 19.6 mph 29.9 mph 0.00 in Snow Light Snow
9:29 AM 33.8 °F 22.8 °F 30.2 °F 87% 29.84 in 2.5 mi West 18.4 mph 28.8 mph 0.00 in Snow Light Snow
9:37 AM 33.8 °F 21.6 °F 28.4 °F 81% 29.83 in 9.0 mi West 23.0 mph 29.9 mph 0.00 in   Overcast
9:53 AM 34.0 °F 22.7 °F 30.0 °F 85% 29.84 in 4.0 mi West 19.6 mph 29.9 mph 0.00 in Snow Light Snow
10:19 AM 33.8 °F 20.5 °F 30.2 °F 87% 29.84 in 8.0 mi West 27.6 mph 33.4 mph 0.00 in   Overcast
10:26 AM 33.8 °F 21.0 °F 28.4 °F 81% 29.84 in 8.0 mi West 25.3 mph 33.4 mph 0.00 in   Overcast
10:53 AM 34.0 °F 21.3 °F 30.0 °F 85% 29.85 in 9.0 mi West 25.3 mph 32.2 mph 0.00 in   Overcast
11:53 AM 35.1 °F 23.0 °F 30.9 °F 85% 29.86 in 4.0 mi West 24.2 mph 32.2 mph N/A   Overcast
12:15 PM 35.6 °F 23.4 °F 32.0 °F 87% 29.87 in 1.8 mi West 25.3 mph - 0.00 in Snow Light Snow
12:37 PM 35.6 °F 23.7 °F 33.8 °F 93% 29.87 in 0.8 mi West 24.2 mph 31.1 mph 0.00 in Snow Light Snow
12:45 PM 35.6 °F 24.0 °F 33.8 °F 93% 29.88 in 2.5 mi WNW 23.0 mph - 0.00 in Snow Light Snow
12:53 PM 36.0 °F 24.7 °F 33.1 °F 89% 29.88 in 4.0 mi WNW 21.9 mph 28.8 mph 0.00 in   Overcast
1:05 PM 35.6 °F 24.5 °F 33.8 °F 93% 29.89 in 1.8 mi WNW 20.7 mph 27.6 mph N/A   Overcast
1:13 PM 37.4 °F 27.2 °F 33.8 °F 87% 29.89 in 3.0 mi WNW 19.6 mph 27.6 mph N/A   Overcast
1:53 PM 37.0 °F 27.7 °F 34.0 °F 89% 29.92 in 10.0 mi NW 16.1 mph - N/A   Overcast
2:53 PM 37.0 °F 27.4 °F 34.0 °F 89% 29.96 in 10.0 mi NW 17.3 mph - N/A   Overcast
3:53 PM 37.0 °F 28.5 °F 34.0 °F 89% 29.99 in 8.0 mi NNW 13.8 mph - N/A   Overcast
4:42 PM 37.4 °F 30.8 °F 33.8 °F 87% 30.01 in 1.8 mi NW 9.2 mph - N/A   Overcast
4:53 PM 37.0 °F 28.9 °F 34.0 °F 89% 30.01 in 4.0 mi NNW 12.7 mph - N/A   Overcast
5:29 PM 37.4 °F 28.9 °F 33.8 °F 87% 30.03 in 10.0 mi NNW 13.8 mph - N/A   Overcast
5:53 PM 36.0 °F 28.0 °F 33.1 °F 89% 30.04 in 3.0 mi North 11.5 mph - N/A   Overcast
6:53 PM 36.0 °F 27.5 °F 32.0 °F 86% 30.08 in 7.0 mi North 12.7 mph - N/A   Overcast
7:41 PM 35.6 °F 26.6 °F 30.2 °F 81% 30.10 in 10.0 mi North 13.8 mph - N/A   Overcast
7:53 PM 35.1 °F 26.9 °F 30.9 °F 85% 30.11 in 10.0 mi North 11.5 mph - N/A   Overcast
8:10 PM 35.6 °F 28.6 °F 30.2 °F 81% 30.11 in 10.0 mi North 9.2 mph - N/A   Overcast
8:29 PM 35.6 °F 28.0 °F 30.2 °F 81% 30.12 in 10.0 mi North 10.4 mph - N/A   Overcast
8:53 PM 35.1 °F 27.9 °F 30.9 °F 85% 30.14 in 10.0 mi North 9.2 mph - N/A   Overcast
9:53 PM 34.0 °F 25.5 °F 30.0 °F 85% 30.17 in 4.0 mi North 11.5 mph - 0.00 in Snow Light Snow
10:03 PM 33.8 °F 25.8 °F 30.2 °F 87% 30.17 in 5.0 mi North 10.4 mph - 0.00 in Snow Light Snow
10:53 PM 33.1 °F 24.4 °F 28.9 °F 85% 30.19 in 10.0 mi NNE 11.5 mph - 0.00 in   Overcast
11:02 PM 33.8 °F 26.4 °F 28.4 °F 81% 30.19 in 10.0 mi North 9.2 mph - N/A   Overcast
11:10 PM 33.8 °F 24.8 °F 28.4 °F 81% 30.19 in 10.0 mi North 12.7 mph - N/A   Overcast
11:53 PM 33.1 °F 26.1 °F 27.0 °F 78% 30.21 in 10.0 mi NNE 8.1 mph - 0.00 in   Overcast